User: anonymous
Location: Unspecified
(0.0000°N, 0.0000°E)
Time: 21:38:40
(UTC+00:00)
Language:

ETS 8 - Orbit

View from above orbital plane
View from above orbital plane
View from above satellite
View from above satellite

Ground track
Ground track

The orbit data is extracted from the following two-line orbital elements,

1 29656U 06059A   14211.67223940 -.00000247  00000-0  00000+0 0  4550
2 29656 003.6044 066.3587 0006051 051.2437 218.3479 01.00272070 27941
Epoch (UTC): 30 July 2014 16:08:01
Eccentricity: 0.0006051
inclination: 3.6044°
perigee height: 35760 km
apogee height: 35811 km
right ascension of ascending node: 66.3587°
argument of perigee: 51.2437°
revolutions per day: 1.00272070
mean anomaly at epoch: 218.3479°
orbit number at epoch: 2794

The dashed part of the orbit path shows where the satellite is in the earth's shadow,  

DLR